User: anonymous   Login
Location: ?????? ??????
(44.3742°N, 135.2221°E)
Time: 23:41:07
(UTC+00:00)
Language:

NOSS 3-4 (C) - Orbit

View from above orbital plane
View from above orbital plane
View from above satellite
View from above satellite

Ground track
Ground track

The orbit data is extracted from the following two-line orbital elements,

1 31708U 07027C   25184.95571157 0.00000128  00000-0  13156-3 0    08
2 31708  63.3748 137.9439 0437346  22.7298 337.2726 13.40965892    02
Epoch (UTC): 03 July 2025 22:56:13
Eccentricity: 0.0437346
inclination: 63.3748°
perigee height: 778 km
apogee height: 1433 km
right ascension of ascending node: 137.9439°
argument of perigee: 22.7298°
revolutions per day: 13.40965892
mean anomaly at epoch: 337.2726°
orbit number at epoch: 0

The dashed part of the orbit path shows where the satellite is in the earth's shadow,  

DLR